User: anonymous   Login
Location: Владивосток
(43.1151°N, 131.8856°E)
Time: 19:11:05
(UTC+10:00)
Language:

COSMOS 2251 DEB - Orbit

View from above orbital plane
View from above orbital plane
View from above satellite
View from above satellite

Ground track
Ground track

The orbit data is extracted from the following two-line orbital elements,

1 34045U 93036JG  24205.85766962  .00000735  00000-0  27394-3 0  9992
2 34045  74.0385 157.9820 0026436   4.5892  26.9612 14.33544863807682
Epoch (UTC): 23 July 2024 20:35:02
Eccentricity: 0.0026436
inclination: 74.0385°
perigee height: 761 km
apogee height: 799 km
right ascension of ascending node: 157.9820°
argument of perigee: 4.5892°
revolutions per day: 14.33544863
mean anomaly at epoch: 26.9612°
orbit number at epoch: 80768

The dashed part of the orbit path shows where the satellite is in the earth's shadow,  

DLR